Volver al catálogo

VENUS

ActivoCienciaSSO
NORAD 42901·PAYLOAD·🇮🇱 Israel

Lanzado Aug 2, 2017 desde Guiana Space Centre

Loading…

Próximos Pases (próximas 24 horas)

TLE

ActualizadoSource: Space-Track

Época: Sep 14, 2026, 12:24 UTC

1 42901U 17044B   26257.51714719  .00003707  00000-0  19891-3 0  9997
2 42901  97.2648 290.2679 0004752  63.7451 296.4270 15.15526584494484

Sigue VENUS en tiempo real con AllMySat

Download on the App Store